Lapse_Rate
6.1 6.1 6.1 6.0 6.2 6.3 6.3 6.6 6.4 6.2 6.0 5.5 5.3 5.0 5.2 5.4 5.4 5.4 5.6 5.7 5.8 5.9 6.0 6.2 6.4 6.7 6.8 6.6 6.5 6.4 6.5 6.3 6.3 6.3 6.4 6.6 6.7 6.7 6.8 6.9 7.0 7.1 7.2 7.2
6.0 6.1 6.3 6.4 6.5 6.5 6.4 6.4 6.5 6.3 6.3 5.8 5.3 4.8 5.0 5.3 5.4 5.4 5.5 5.6 5.7 5.9 6.0 6.0 6.1 6.4 6.7 6.8 6.6 6.4 6.4 6.4 6.2 6.2 6.2 6.3 6.5 6.6 6.6 6.6 6.8 6.9 6.9 7.0
5.9 6.1 6.4 6.4 6.3 6.3 6.3 6.4 6.4 6.3 6.2 6.1 5.6 5.2 5.2 5.0 5.2 5.4 5.5 5.6 5.7 5.8 6.0 6.1 5.9 6.0 6.1 6.4 6.7 6.6 6.4 6.4 6.2 6.2 6.1 6.1 6.3 6.3 6.5 6.5 6.4 6.3 6.4 6.5
6.1 6.3 6.4 6.4 6.1 6.2 6.4 6.4 6.4 6.1 6.2 6.4 6.2 6.1 5.0 4.8 5.1 5.3 5.6 5.6 5.7 5.7 5.7 5.9 5.9 5.8 5.9 6.0 6.3 6.7 6.7 6.6 6.4 6.3 6.2 6.1 6.0 6.0 6.1 6.2 6.2 6.0 5.9 6.0
6.1 6.2 6.4 6.2 6.3 6.3 6.3 6.5 6.5 6.2 6.2 6.3 6.5 6.4 5.2 5.0 4.8 5.3 5.5 5.6 5.7 5.8 5.8 5.8 5.9 5.7 5.8 6.0 6.1 6.1 6.3 6.4 6.3 6.3 6.2 6.0 5.9 5.9 5.8 5.8 5.8 5.8 5.8 5.7
6.2 6.3 6.3 6.4 6.5 6.4 6.4 6.5 6.5 6.2 6.1 6.0 6.9 6.9 5.3 5.4 5.4 5.5 5.7 5.7 5.8 5.8 5.8 5.8 5.8 5.8 5.8 5.9 6.0 6.1 6.1 6.1 6.2 6.1 5.9 5.8 5.8 5.6 5.6 5.6 5.6 5.6 5.6 5.6
6.1 6.1 6.3 6.4 6.3 6.3 6.4 6.3 6.6 6.0 6.0 6.3 7.0 6.9 5.4 5.6 5.7 5.9 6.0 5.8 5.7 5.8 5.8 5.8 5.8 5.8 5.7 5.6 5.8 5.9 5.9 6.0 6.0 6.0 5.8 5.6 5.5 5.5 5.5 5.5 5.4 5.4 5.4 5.4
6.3 5.9 6.0 6.3 6.1 6.0 6.2 6.5 6.6 6.3 6.8 7.1 7.1 6.9 5.5 6.1 6.2 6.1 6.0 5.9 5.9 5.8 5.8 5.8 5.8 5.8 5.9 5.9 5.8 5.7 5.6 5.5 5.4 5.4 5.4 5.4 5.5 5.6 5.7 5.6 5.5 5.4 5.4 5.4
6.1 6.2 6.0 6.0 6.2 6.2 6.1 6.2 6.8 6.7 7.3 7.2 7.4 6.2 5.6 6.3 6.2 6.1 6.0 6.0 6.0 5.9 5.9 5.9 6.0 6.0 5.9 5.8 5.7 5.7 5.6 5.5 5.5 5.5 5.5 5.5 5.4 5.4 5.5 5.5 5.5 5.4 5.3 5.3
5.5 5.8 6.1 6.3 6.3 6.2 6.3 6.5 6.6 6.8 6.6 7.0 8.0 7.0 5.7 6.2 6.3 6.0 5.8 6.0 6.0 6.0 5.9 5.8 5.9 6.0 6.0 6.0 6.0 5.9 5.8 5.7 5.7 5.6 5.6 5.6 5.6 5.5 5.5 5.5 5.4 5.3 5.3 5.3
6.0 5.8 5.7 6.1 6.1 6.1 6.3 6.4 6.6 6.9 7.2 6.8 6.5 6.2 5.8 5.6 5.9 5.8 5.4 6.1 6.0 5.9 5.8 5.7 5.8 5.9 5.9 6.0 6.0 6.0 6.0 5.9 5.8 5.8 5.8 5.7 5.8 5.7 5.7 5.6 5.6 5.6 5.6 5.4
6.1 5.7 6.1 6.2 6.3 6.5 6.4 6.5 6.5 6.5 6.9 7.3 7.3 6.6 6.4 5.6 5.6 5.5 5.5 6.3 6.0 5.8 5.8 5.8 5.8 5.8 5.8 5.8 5.8 5.8 5.8 5.9 5.8 5.9 5.9 5.9 5.9 5.8 5.8 5.8 5.8 5.9 5.8 5.8
6.0 5.6 6.1 6.2 6.2 5.9 5.7 6.3 6.3 6.5 6.4 6.6 6.9 6.5 6.3 5.7 5.4 5.4 5.8 6.1 6.0 5.9 5.8 5.8 5.7 5.8 5.7 5.6 5.6 5.6 5.6 5.7 5.7 5.6 5.7 5.8 5.9 5.9 5.9 6.0 6.0 5.9 5.9 5.9
5.8 6.0 6.1 6.2 5.6 5.8 5.7 6.1 6.3 6.4 6.3 6.7 6.9 6.5 6.2 5.9 5.7 5.6 5.5 5.9 5.6 5.7 5.7 5.8 5.5 5.3 5.2 5.2 5.2 5.1 5.1 5.1 5.2 5.2 5.3 5.4 5.6 5.6 5.6 5.8 5.9 5.9 5.9 5.9
5.8 5.9 5.6 6.1 6.1 6.0 6.1 5.9 5.7 5.6 6.1 6.2 6.7 6.5 5.9 5.2 5.4 5.6 5.4 5.4 5.3 5.1 5.2 5.3 5.1 4.9 4.8 4.7 4.7 4.8 4.8 4.9 5.0 5.0 5.1 5.1 5.2 5.4 5.6 5.6 5.6 5.6 5.7 5.8
5.9 5.4 5.8 6.1 6.2 6.2 6.2 6.2 6.0 5.7 5.7 5.8 6.0 6.1 6.0 5.9 5.6 5.3 5.2 4.8 4.6 4.5 4.2 4.8 4.7 4.5 4.5 4.5 4.6 4.7 4.8 4.8 4.8 4.8 4.9 5.0 5.0 5.0 5.1 5.2 5.3 5.4 5.5 5.5
5.8 5.7 5.2 5.7 5.8 6.0 6.0 6.0 5.9 5.9 5.9 6.0 5.7 5.6 5.8 5.8 5.5 5.0 4.7 4.4 4.3 4.1 4.2 4.4 4.3 4.3 4.3 4.3 4.4 4.5 4.5 4.7 4.8 4.9 5.0 5.1 5.2 5.3 5.3 5.4 5.4 5.4 5.5 5.6
5.8 5.7 5.4 5.6 5.7 5.6 6.2 6.0 6.2 6.2 5.9 6.2 5.9 5.7 5.7 5.4 4.9 4.9 4.8 4.8 4.5 4.0 4.2 4.2 4.2 4.2 4.2 4.4 4.5 4.6 4.7 4.7 4.8 4.9 5.0 5.1 5.2 5.3 5.3 5.4 5.5 5.5 5.5 5.5
5.6 5.4 5.4 5.7 6.0 6.4 5.9 6.0 6.1 6.0 6.1 5.5 5.5 5.5 5.4 4.9 4.5 4.8 4.4 4.4 4.2 4.6 4.4 4.3 4.3 4.3 4.4 4.4 4.4 4.4 4.4 4.5 4.6 4.7 4.7 4.8 4.9 5.0 5.0 5.1 5.1 5.1 5.1 5.0
5.6 5.6 5.9 5.4 5.6 6.0 5.6 5.7 5.7 5.6 5.4 4.9 4.9 4.9 4.5 4.3 4.5 4.6 4.4 4.5 4.3 4.3 4.5 4.4 4.4 4.4 4.3 4.3 4.4 4.5 4.5 4.6 4.7 4.7 4.7 4.7 4.7 4.8 4.8 4.9 4.9 4.9 4.9 4.9
5.7 5.5 5.7 5.7 5.6 5.9 5.7 5.8 5.7 5.4 4.9 4.6 4.6 4.4 4.3 4.2 4.2 4.3 4.8 4.4 4.1 4.8 4.7 4.6 4.6 4.7 4.8 5.0 5.3 5.3 5.3 5.2 5.2 5.0 4.9 4.8 4.7 4.7 4.7 4.6 4.6 4.5 4.5 4.6
5.5 5.3 5.1 5.2 5.5 5.7 5.5 5.6 5.5 5.3 5.0 4.9 4.8 4.6 4.6 4.6 4.6 4.6 4.4 4.3 4.6 4.7 4.9 5.2 5.6 6.0 6.3 6.8 7.0 7.0 7.0 7.0 6.7 6.3 5.9 5.7 5.5 5.2 5.1 4.9 4.6 4.4 4.3 4.3
5.9 5.9 5.9 5.9 5.8 5.7 5.6 5.2 5.0 4.9 4.7 5.0 5.0 5.0 4.9 4.8 4.9 4.8 4.7 5.0 5.4 5.9 6.3 6.7 7.3 7.6 8.0 8.3 8.3 8.1 8.1 8.1 7.9 7.7 7.3 7.1 6.8 6.6 6.2 5.9 5.4 5.1 4.8 4.8
5.8 5.7 5.5 5.8 6.0 6.1 5.7 5.2 5.0 4.7 4.6 4.7 5.0 5.0 5.2 5.3 5.4 5.6 5.8 6.5 7.1 7.5 7.8 8.0 8.1 8.2 8.3 8.3 8.2 7.9 7.9 8.0 8.0 7.8 7.7 7.5 7.4 7.4 7.3 7.3 7.1 6.8 6.5 6.1
6.2 5.4 5.2 5.1 5.6 5.6 5.4 5.6 5.3 5.3 5.3 5.3 5.3 5.4 5.5 5.7 6.4 6.9 7.5 8.0 8.0 8.1 8.1 8.2 8.2 8.3 8.2 8.1 7.9 7.8 7.7 7.8 7.9 7.6 7.7 7.6 7.6 8.0 7.9 7.8 7.6 7.5 7.4 7.2
6.3 5.8 5.2 5.5 5.6 5.1 5.1 5.2 4.8 4.8 5.4 5.5 5.7 5.9 6.2 6.7 7.3 8.1 8.1 8.1 8.1 8.2 8.1 8.1 8.3 8.2 8.1 7.9 7.7 7.7 7.8 7.9 7.8 7.8 7.9 8.1 7.9 7.7 7.7 7.6 7.5 7.4 7.4 7.2
Wind_Speed
4 3 1 9 8 7 8 7 6 8 3 2 8 8 7 7 8 8 9 9 9 9 9 10 10 9 9 4 8 6 9 8 4 3 3 2 3 3 2 5 5 6 6 9
3 1 6 5 4 5 5 5 2 6 4 2 7 8 7 8 6 8 8 9 9 9 10 11 13 13 13 13 6 5 5 7 4 4 3 3 2 2 4 7 8 9 9 8
6 5 3 3 1 5 5 5 5 4 5 6 8 7 8 7 8 8 9 9 9 10 11 12 12 14 14 14 13 9 7 5 4 4 3 3 4 3 3 2 1 4 9 9
3 3 2 1 4 4 4 6 3 2 3 2 8 0 8 9 8 9 8 8 9 9 10 11 12 13 13 13 13 14 14 13 11 6 4 3 2 3 3 3 1 3 8 7
3 1 1 4 4 4 3 3 3 3 5 6 7 2 5 10 8 8 7 8 9 9 9 11 11 12 9 9 9 11 13 14 13 11 8 5 5 4 4 4 5 4 4 3
4 1 3 4 3 3 1 3 5 3 3 3 10 8 7 5 12 7 8 8 8 9 9 9 10 10 9 9 8 8 8 9 9 9 9 8 8 7 6 6 5 5 4 3
5 5 4 2 4 3 3 4 2 2 2 3 6 3 5 8 9 11 9 8 8 8 8 8 8 8 9 9 9 10 9 8 8 8 8 8 8 8 8 6 5 6 5 4
3 2 4 2 2 3 6 2 2 3 2 1 2 3 5 9 10 9 9 8 8 8 7 8 8 8 8 8 9 9 9 10 9 8 8 7 8 5 5 5 5 4 4 5
4 4 4 5 3 3 2 2 3 4 6 2 5 5 5 9 8 8 8 8 7 7 7 8 8 7 8 8 9 9 9 9 9 8 7 8 7 7 6 7 5 4 5 5
3 3 1 3 2 3 3 2 1 2 3 4 4 6 3 9 9 8 8 8 7 7 7 7 7 7 7 7 7 8 8 9 9 9 7 7 8 8 7 7 7 7 6 7
5 3 3 3 1 4 1 2 3 1 2 2 3 2 6 9 10 9 8 8 7 7 6 6 6 7 7 7 7 7 8 8 8 8 8 8 7 8 8 7 7 7 7 7
5 3 4 4 3 0 1 4 2 1 4 3 2 2 6 4 9 8 10 8 7 6 5 5 7 7 7 7 7 7 7 7 7 7 7 7 8 8 9 9 9 10 7 10
5 3 4 4 3 1 1 3 3 3 1 4 1 1 4 3 8 10 10 7 6 5 6 7 7 7 7 7 7 7 7 7 7 7 7 7 7 7 7 8 10 11 10 9
3 4 4 3 1 1 2 5 3 2 1 4 3 5 4 2 7 7 8 7 7 7 7 6 7 7 7 7 7 7 6 7 7 7 7 6 7 7 6 7 8 8 9 9
3 4 4 6 6 3 6 7 6 5 6 3 3 5 3 6 5 6 7 6 6 6 6 6 5 5 6 6 6 6 6 6 6 6 7 6 6 6 6 6 6 7 8 8
2 2 6 4 4 2 6 7 6 5 5 6 6 4 6 7 6 6 5 5 4 5 6 6 5 6 6 6 6 6 6 6 6 6 6 6 8 8 7 7 6 6 7 7
3 3 1 3 1 4 7 2 8 3 3 3 2 4 2 1 3 2 4 5 6 6 6 5 5 5 5 5 5 6 6 6 6 6 7 9 9 8 7 7 7 6 6 6
2 2 1 3 4 3 3 4 6 1 4 3 1 4 5 5 6 7 6 4 4 7 6 5 4 3 4 4 5 6 6 6 6 6 8 8 8 8 9 7 7 7 5 6
2 3 2 1 3 2 5 3 2 2 3 6 3 5 1 2 3 6 6 6 8 7 5 2 3 3 3 5 5 6 6 6 6 8 8 8 8 9 8 7 7 7 6 6
2 3 1 1 2 4 5 6 5 3 4 8 4 4 5 6 4 2 5 6 6 6 4 3 4 3 4 4 5 5 5 5 6 6 6 6 7 8 9 8 8 7 7 6
3 3 4 3 3 3 7 6 2 1 0 5 3 5 6 4 4 4 7 6 7 5 2 2 3 3 3 4 4 5 5 5 5 6 4 5 6 7 6 7 6 6 6 5
4 4 4 4 4 6 8 4 3 3 3 5 6 6 5 6 7 7 6 7 6 3 1 1 1 2 2 3 3 5 4 4 4 6 4 4 4 5 5 6 6 6 6 6
2 3 2 3 2 5 6 6 3 3 2 2 5 4 5 6 6 6 4 4 2 2 1 1 1 2 4 3 3 3 3 4 5 6 3 4 3 5 3 5 5 5 6 4
6 5 3 4 2 3 3 4 4 3 1 3 3 5 5 6 7 5 2 3 3 2 2 1 1 4 4 2 1 3 3 4 5 6 2 4 1 4 1 3 3 3 4 5
2 4 2 6 8 8 8 7 1 2 2 4 5 6 7 6 6 4 3 1 1 1 1 2 3 3 3 1 1 3 2 3 4 5 5 1 4 2 3 2 2 2 3 3
4 4 4 5 7 2 3 1 1 2 4 6 7 6 6 5 6 2 3 1 1 3 3 4 5 4 4 2 1 2 2 2 3 4 4 2 2 3 2 2 1 3 4 3
Wind_Direction
179 272 337 40 30 348 338 7 35 94 31 38 106 103 91 71 53 57 53 40 31 33 28 22 7 355 335 226 270 137 137 160 150 140 165 167 184 191 198 210 225 215 210 190
226 174 57 58 22 331 331 305 108 80 151 231 139 123 102 94 77 64 61 50 43 30 32 31 19 8 7 9 41 31 124 144 151 150 175 163 177 203 186 196 199 218 213 215
308 72 43 12 306 292 225 330 16 66 169 261 156 154 143 119 105 82 61 62 45 48 40 34 31 22 16 17 11 16 35 92 95 77 62 41 39 20 11 334 232 223 220 220
37 66 349 210 252 20 334 5 352 95 194 257 168 205 163 142 108 78 69 56 57 42 48 44 39 39 28 18 21 25 32 27 25 49 23 119 178 223 230 210 219 233 225 228
58 135 226 274 36 350 99 332 343 312 286 309 196 255 118 141 127 100 79 72 60 56 50 50 44 40 36 27 26 35 37 34 26 27 25 25 20 9 358 23 16 346 320 243
85 103 310 33 82 25 59 259 219 257 235 252 223 176 173 189 142 120 99 78 73 63 52 50 50 41 34 24 33 35 49 43 34 33 27 35 36 18 24 9 2 351 343 334
166 167 112 264 226 169 225 273 236 248 197 247 11 135 117 103 111 116 110 92 79 69 60 52 50 49 36 28 30 43 35 37 43 40 36 35 37 43 41 21 17 16 6 6
291 207 165 141 359 7 222 346 301 296 34 138 272 189 142 96 89 93 98 100 83 72 71 58 51 46 50 40 34 32 36 32 27 26 26 28 38 39 35 28 27 19 18 353
346 108 99 45 347 8 84 202 346 310 279 249 144 88 84 122 125 131 117 97 87 84 69 67 56 51 48 42 41 35 33 27 21 20 25 19 18 28 34 25 21 15 6 1
31 273 257 108 256 208 246 342 301 234 268 260 198 123 116 167 158 141 132 115 101 86 76 74 66 58 45 40 40 37 36 31 15 10 19 24 14 12 16 24 17 10 1 5
347 242 155 162 182 19 221 225 235 245 262 259 323 85 352 176 161 155 128 112 105 90 82 72 67 65 61 47 37 35 32 27 17 4 4 19 15 11 8 11 5 2 0 358
70 324 301 75 78 332 307 341 327 230 329 324 159 217 331 110 137 140 120 112 100 98 101 88 79 66 48 43 35 29 28 23 14 357 2 9 16 11 6 2 356 355 355 352
355 228 290 134 147 215 61 39 354 343 248 244 311 156 7 24 115 118 123 133 123 108 78 62 52 54 45 37 28 20 22 14 6 350 356 2 21 11 0 357 357 354 351 346
298 295 284 302 28 73 202 181 138 6 297 329 311 138 143 92 122 118 119 122 120 98 81 63 47 43 39 39 29 14 13 5 357 349 351 5 14 3 358 357 354 343 344 352
358 275 310 324 314 263 266 286 292 246 267 247 358 4 51 159 156 147 134 131 122 112 89 77 60 37 34 31 22 7 9 356 347 349 349 352 359 0 356 349 342 341 345 337
44 291 351 277 221 10 277 271 269 267 281 296 297 299 37 35 50 85 121 154 115 124 94 62 45 31 27 18 10 5 0 345 341 349 334 358 1 357 349 338 335 340 330 327
316 322 336 273 148 293 270 266 207 109 35 23 297 74 69 100 311 185 252 153 191 118 75 55 46 36 18 4 7 6 348 330 354 344 12 4 352 341 334 332 334 333 322 343
301 267 354 276 347 248 103 34 32 69 117 172 143 93 41 24 7 2 352 311 349 106 85 54 38 25 359 356 19 3 344 342 354 15 5 354 345 340 341 335 344 343 329 314
271 311 269 204 289 309 153 187 160 186 262 170 196 135 218 326 326 285 308 224 103 84 85 83 42 19 355 26 27 4 332 357 20 16 354 338 357 347 338 346 342 337 334 326
197 269 310 151 242 267 100 81 70 60 284 108 72 38 2 11 342 258 77 94 109 106 77 42 360 343 26 28 32 342 357 15 23 349 317 1 336 340 337 348 337 338 338 0
185 204 190 238 268 293 126 126 199 268 323 99 33 345 333 313 244 294 322 144 99 86 50 49 314 339 34 52 27 340 354 26 360 314 14 338 8 338 360 353 354 349 7 17
188 179 183 194 220 250 124 133 205 133 29 342 335 333 322 308 308 302 299 112 119 150 285 284 344 336 1 74 34 343 349 12 344 311 357 336 20 344 16 6 0 11 15 21
250 206 206 179 156 128 179 254 298 320 141 320 303 297 313 310 308 317 62 71 110 114 192 264 226 298 270 117 94 315 334 354 336 314 10 330 47 327 78 12 9 15 9 6
217 177 185 29 333 307 306 297 309 335 318 182 284 298 306 289 297 307 302 209 200 166 177 156 273 265 274 97 79 298 17 348 338 310 10 309 102 318 10 115 11 60 14 4
249 55 218 257 267 276 265 258 67 25 283 251 263 275 267 258 268 297 289 7 351 238 190 188 231 270 288 343 299 328 60 354 324 311 300 37 335 336 14 45 105 74 75 34
207 222 213 235 241 258 297 88 31 329 296 278 266 272 274 286 218 249 284 237 253 263 240 216 222 242 247 258 247 314 92 326 306 304 315 4 332 331 27 4 149 169 167 138